{"data":{"norad_id":62811,"epoch":"2026-09-21T20:09:58.558176Z","epoch_age_seconds":52354,"freshness":"FRESH","line1":"1 62811U 25018F   26264.84026109  .00009459  00000+0  29056-3 0  9995","line2":"2 62811  53.1592 117.5254 0001328  76.7524 283.3627 15.34418688 93219","mean_motion":15.34418688,"eccentricity":0.0001328,"inclination_deg":53.1592,"raan_deg":117.5254,"arg_perigee_deg":76.7524,"mean_anomaly_deg":283.3627,"bstar":0.00029056,"rev_number":9321,"period_min":93.846615090235,"perigee_km":461.73923988889,"apogee_km":463.55615230417,"semimajor_km":6840.7846960965,"source":"CELESTRAK","updated_at":"2026-09-22T09:00:49.667348Z"}}